Flag for Germany

Past Weather in Riesa, Saxony, Germany — Yesterday and Last 2 Weeks

Currently: 34 °F. Passing clouds. (Weather station: Dresden-Klotzsche, Germany). See more current weather

Past Weather in Riesa — Graph

°F

Riesa Temperature Yesterday

Maximum temperature yesterday: 32 °F (at 10:50 am)
Minimum temperature yesterday: 28 °F (at 2:20 am)
Average temperature yesterday: 31 °F

High & Low Weather Summary for the Past Weeks

 TemperatureHumidityPressure
High50 °F (Jan 21, 1:50 pm)100% (Jan 13, 9:20 pm)30.24 "Hg (Jan 13, 9:20 pm)
Low18 °F (Jan 17, 10:20 pm)50% (Jan 20, 1:20 pm)29.30 "Hg (Jan 22, 9:20 am)
Average33 °F84%29.78 "Hg
* Reported Jan 12 5:20 pm — Jan 27 5:50 pm, Riesa. Weather by CustomWeather, © 2021

Note: Actual official high and low records may vary slightly from our data, if they occured in-between our weather recording intervals... More about our weather records

Riesa Weather History for the Previous 24 Hours

Scroll right to see more
 ConditionsComfort  
Time TempWeatherWind HumidityBarometerVisibility
5:50 pm
Wed, Jan 27
28 °FClear.5 mph80%29.89 "Hg10 mi
5:20 pm32 °FClear.7 mph75%29.89 "Hg10 mi
4:50 pm32 °FClear.7 mph75%29.89 "Hg10 mi
4:20 pm34 °FSunny.7 mph70%29.89 "Hg10 mi
3:50 pm36 °FPassing clouds.9 mph70%29.89 "HgN/A
3:20 pm36 °FPassing clouds.7 mph70%29.89 "HgN/A
2:50 pm37 °FPassing clouds.6 mph65%29.92 "HgN/A
2:20 pm36 °FPassing clouds.5 mph70%29.92 "HgN/A
1:50 pm36 °FPassing clouds.8 mph70%29.92 "HgN/A
1:20 pm36 °FPassing clouds.9 mph70%29.92 "HgN/A
12:50 pm36 °FPassing clouds.10 mph70%29.92 "HgN/A
12:20 pm36 °FPartly sunny.6 mph75%29.95 "HgN/A
11:50 am34 °FPartly sunny.7 mph81%29.95 "HgN/A
11:20 am34 °FPartly sunny.8 mph81%29.95 "HgN/A
10:50 am34 °FPartly sunny.9 mph81%29.95 "HgN/A
10:20 am32 °FPartly sunny.8 mph87%29.95 "HgN/A
9:50 am32 °FPartly sunny.7 mph87%29.98 "HgN/A
9:20 am32 °FPartly sunny.8 mph87%29.98 "HgN/A
8:50 am32 °FBroken clouds.6 mph87%29.95 "HgN/A
8:20 am32 °FPartly sunny.7 mph87%29.95 "HgN/A
7:50 am32 °FBroken clouds.6 mph87%29.95 "HgN/A
7:20 am32 °FPartly cloudy.6 mph80%29.95 "HgN/A
6:50 am30 °FPartly cloudy.6 mph86%29.95 "HgN/A
6:20 am30 °FPartly cloudy.5 mph86%29.95 "HgN/A
5:50 am30 °FPartly cloudy.6 mph86%29.98 "HgN/A
5:20 am30 °FPassing clouds.7 mph86%29.98 "HgN/A
4:50 am30 °FPassing clouds.6 mph86%29.98 "HgN/A
4:20 am30 °FPassing clouds.5 mph86%29.98 "HgN/A
3:50 am30 °FPassing clouds.7 mph86%29.98 "HgN/A
3:20 am30 °FPassing clouds.6 mph86%29.98 "HgN/A
2:50 am30 °FPartly cloudy.6 mph86%29.98 "HgN/A
2:20 am32 °FPassing clouds.9 mph87%29.98 "HgN/A
1:50 am32 °FPassing clouds.9 mph87%29.98 "HgN/A
1:20 am32 °FLight snow. Passing clouds.9 mph87%29.98 "HgN/A
12:50 am32 °FPassing clouds.9 mph87%29.98 "HgN/A
12:20 am32 °FPartly cloudy.9 mph87%29.98 "HgN/A
11:50 pm
Tue, Jan 26
32 °FPartly cloudy.12 mph87%29.98 "HgN/A
11:20 pm32 °FPassing clouds.10 mph87%29.98 "HgN/A
10:50 pm32 °FPassing clouds.12 mph87%29.98 "HgN/A
10:20 pm32 °FLight snow. Partly cloudy.13 mph87%29.95 "HgN/A
9:50 pm32 °FPassing clouds.12 mph80%29.95 "HgN/A
9:20 pm32 °FPartly cloudy.9 mph87%29.95 "HgN/A
8:50 pm32 °FPartly cloudy.10 mph87%29.95 "HgN/A
8:20 pm32 °FMostly cloudy.9 mph93%29.95 "HgN/A
7:50 pm32 °FLight snow. Low clouds.12 mph93%29.95 "Hg5 mi
7:20 pm32 °FLight snow. Low clouds.10 mph93%29.95 "Hg5 mi
Weather by CustomWeather, © 2021

See weather overview